Regional Weather Roundup
Issued by NWS Grand Forks, ND

Home | Current Version | Previous Version | Graphics & Text | Print | Product List | Glossary On
Versions: 1 2 3 4 5 6 7 8 9 10 11 12 13 14 15 16 17 18 19 20 21 22 23 24 25 26 27 28 29 30 31 32 33 34 35 36 37 38 39 40 41 42 43 44 45 46 47 48 49 50
000
ASUS43 KFGF 302231
RWRFGF
PRAIRIE TO PINES  WEATHER ROUNDUP
NATIONAL WEATHER SERVICE EASTERN NORTH DAKOTA/GRAND FORKS ND
500 PM CDT MON MAY 30 2016

 **SATELLITE DATA USED TO AUGMENT SKY COVER AT AUTOMATED STATIONS**
 *****  WEATHER ACROSS EASTERN NORTH DAKOTA  *****

CITY           SKY/WX    TMP DP  RH WIND       PRES   REMARKS
GRAND FORKS    CLOUDY    64  54  69 N8        29.83F
GRAND FRKS AFB LGT RAIN  64  54  68 N7        29.85F
GRAND FRKS NWS   N/A     64 N/A N/A VRB9        N/A
DEVILS LAKE    LGT RAIN  63  55  75 VRB6      29.85F
FARGO          FAIR      86  46  24 SE21G26   29.78F
WAHPETON ARPT  CLOUDY    73  54  49 W10       29.82S
$$

 ***** WEATHER ACROSS CENTRAL AND WESTERN NORTH DAKOTA  *****

CITY           SKY/WX    TMP DP  RH WIND       PRES   REMARKS
BISMARCK       CLOUDY    69  54  58 N23G29    29.80R
MINOT          LGT RAIN  62  55  77 SW10      29.87S
JAMESTOWN      FAIR      72  60  66 SW9       29.78S
MINOT AFB      DRIZZLE   62  53  72 W10       29.86R
GARRISON         N/A     57  53  86 NW16      29.86F
WILLISTON      LGT RAIN  59  52  77 N9        29.91F
DICKINSON      CLOUDY    56  53  90 N9        29.85R
HETTINGER      CLOUDY    56  53  90 N8        29.84F
$$

 *****  OTHER AIRPORT OBSERVATIONS IN OUR AREA  *****

CITY           SKY/WX    TMP DP  RH WIND       PRES   REMARKS
WALHALLA       FAIR      73  70  88 S5        29.86F
GRAFTON AIRPOR MOCLDY    72  55  56 W22G28    29.88R
VALLEY CITY AR MOCLDY    79  50  36 SE15G22   29.78F
CANDO          FAIR      68  54  60 CALM      29.85F
CAVALIER APRT  FAIR      75  54  46 SE3       29.85F
GWINNER        FAIR      84  52  32 S13       29.79F
SHEYENNE NWR     N/A     81  55  40 SE13      29.95S
ROLLA          FAIR      72  39  30 NE15      29.85F
 ***** THE ABOVE OBSERVATIONS ARE NON NWS ARE NOT QUALITY
       CONTROLLED AND MAY MIS-REPORT RAIN FOR SNOW...
$$

  *****  WEATHER ACROSS NORTHERN MINNESOTA  *****

CITY           SKY/WX    TMP DP  RH WIND       PRES   REMARKS
FLAG ISLAND    PTSUNNY   70  48  46 NE10      29.92F
WARROAD        FAIR      70  57  64 NE10G16   29.91F
ROSEAU         FAIR      77  61  57 E13       29.89S
HALLOCK        FAIR      79  43  27 S9        29.85F
THF RVR FALLS  FAIR      73  50  43 E7        29.87F
BAUDETTE       FAIR      75  45  34 E6        29.90F
WASKISH        FAIR      75  46  35 SW3       29.91F
CROOKSTON      TSTM      73  57  56 E8        29.84F
STEPHEN NDAWN    N/A     77  52  41 SE3         N/A
GREENBUSH NDAW   N/A     79  52  38 S3          N/A
$$
  *****  WEATHER ACROSS CENTRAL AND WEST MINNESOTA  *****

CITY           SKY/WX    TMP DP  RH WIND       PRES   REMARKS
FOSSTON        FAIR      82  59  44 NE6       29.86F
BEMIDJI        FAIR      76  48  36 E10       29.89F
PARK RAPIDS    LGT RAIN  73  56  54 NE6       29.89F
ELBOW LAKE     FAIR      80  55  41 SE15      29.84F
WADENA         FAIR      81  48  32 S16       29.88F
DETROIT LAKES  FAIR      81  46  30 SE12G18   29.86F
MOORHEAD       FAIR      84  46  26 SE16      29.79F
FERGUS FALLS   FAIR      82  50  32 SE16      29.79F
MORRIS MN      FAIR      81  54  39 S10G16    29.82F
STAPLES        FAIR      81  46  30 S16       29.90F
$$
  *****  WEATHER ELSEWHERE ACROSS MINNESOTA  *****

CITY           SKY/WX    TMP DP  RH WIND       PRES   REMARKS
DULUTH         PTSUNNY   77  45  32 CALM      29.93F
INTRNTL FALLS  FAIR      75  49  39 NE7       29.94R
ELY            PTSUNNY   73  41  31 N7        29.96S
CLOQUET        PTSUNNY   79  39  24 CALM      29.93S
WHEATON        FAIR      86  55  35 SE12G18   29.81F
BRAINERD       PTSUNNY   78  49  35 S12       29.91F
HIBBING        FAIR      77  41  27 W8        29.93F
ALEXANDRIA     FAIR      80  52  37 SE13      29.90F
SAINT CLOUD    FAIR      81  52  36 S14       29.91F
MINNEAPOLIS    PTSUNNY   83  48  29 S10G17    29.92F
$$

  *****  WEATHER ACROSS SOUTH DAKOTA  *****

CITY           SKY/WX    TMP DP  RH WIND       PRES   REMARKS
SIOUX FALLS    CLOUDY    80  57  45 S13       29.83F
BROOKINGS      FAIR      80  59  48 S15G21    29.83F
WATERTOWN      FAIR      81  55  40 S18G28    29.81F
HURON          PTSUNNY   79  61  53 S16G24    29.76F
SISSETON         N/A     86  50  28 S17       29.79F
ABERDEEN       MOSUNNY   83  55  38 S20       29.77F
MITCHELL       PTSUNNY   82  61  48 S10       29.80F
PIERRE         SUNNY     84  57  39 S17G25    29.70F
MOBRIDGE       PTSUNNY   68  55  63 E22G30    29.69F
RAPID CITY     PTSUNNY   71  48  43 N26G36    29.84F
$$

  *****  SOME WEATHER IN NEARBY STATES *****

CITY           SKY/WX    TMP DP  RH WIND       PRES   REMARKS
GLASGOW MT     CLOUDY    59  44  57 W20G28    29.94F
GREAT FALLS MT CLOUDY    57  33  40 NW17G26   30.14R
CHEYENNE WY    LGT RAIN  58  46  64 SW8       30.04R
SCOTTSBLUFF NE CLOUDY    67  45  45 S13       29.93F
OMAHA NE       TSTM      82  57  42 S18G28    29.86F
DES MOINES IA  FAIR      87  59  38 S13       29.90F
DAVENPORT IA   FAIR      85  58  39 S10G17    29.97F
CHICAGO IL     FAIR      86  52  30 N7        29.95F
EAU CLAIRE WI  FAIR      81  49  32 SW8       29.95F
LA CROSSE WI   FAIR      83  47  28 VRB3      29.96F
$$

  *****  SOME NATIONAL WEATHER *****

CITY           SKY/WX    TMP DP  RH WIND       PRES   REMARKS
LA GUARDIA NY  PTSUNNY   78  73  84 S13       29.92S
RALEIGH NC     PTSUNNY   73  70  90 NE6       29.94S
ATLANTA GA     FAIR      91  55  29 NW12      29.94F
NEW ORLEANS LA PTSUNNY   77  69  76 SW6       29.93F
OKLAHOMA CITY  PTSUNNY   82  64  54 S8        29.92F
ALBUQUERQUE NM PTSUNNY   83  21  10 VRB5      29.98F
SALT LAKE CITY PTSUNNY   78  36  21 N14G20    30.05F
LOS ANGELES CA MOSUNNY   66  55  67 W14G21    29.96F
BOISE ID       SUNNY     74  32  21 NW16      30.09F
SEATTLE WA     MOSUNNY   71  43  36 N10       30.26F
$$

*** WEATHER ACROSS MANITOBA...SASKATCHEWAN AND ONTARIO ***
                ***ONTARIO***

CITY           SKY/WX    TMP DP  RH WIND       PRES   REMARKS
GERALDTON      CLOUDY    46  43  87 NW10G20   29.97R
THUNDER BAY    MOSUNNY   70  48  46 N15       29.95R
SIOUX LOOKOUT  PTSUNNY   57  46  67 NE3       30.03
TORONTO        PTSUNNY   79  46  31 NW18G26   29.92S
BIG TROUT LK   SUNNY     57  25  28 NE7G17    30.10R
PICKLE LAKE    PTSUNNY   54  39  58 NE7       30.06R
DRYDEN         SUNNY     63  46  55 NE14G20   30.01S
KENORA         PTSUNNY   68  50  52 E10       29.97S
$$
                *** MANITOBA***

CITY           SKY/WX    TMP DP  RH WIND       PRES   REMARKS
BRANDON        CLOUDY    75  48  38 E8        29.87S
DAUPHIN        SUNNY     66  54  63 NE12      29.94S
ISLAND LAKE    CLOUDY    57  37  47 SW5       30.10R
PILOT MOUND      N/A     73  41  31 NE5         N/A
THE PAS        PTSUNNY   57  52  82 E9        30.04R
THOMPSON       PTSUNNY   57  37  47 NE7       30.14R
WINNIPEG       PTSUNNY   75  48  38 NE9       29.89S
LYNN LAKE      CLOUDY    43  41  93 E8G17     30.16R
CHURCHILL      MOSUNNY   34  28  80 NE16      30.35S WCI  23
GILLAM         MOSUNNY   52  34  50 E8        30.20R
$$
                ***SASKATCHEWAN***

CITY           SKY/WX    TMP DP  RH WIND       PRES   REMARKS
ESTEVAN        LGT RAIN  57  54  88 SW15G21   29.92R
KINDERSLEY     PTSUNNY   57  52  82 N16G23    29.94
LLOYDMINSTER   CLOUDY    57  46  67 N7        30.03S
PRINCE ALBERT  PTSUNNY   64  46  52 E12       29.97F
REGINA         CLOUDY    66  48  52 NW17      29.87R
YORKTON        SUNNY     70  50  49 N14G20    29.90S
N. BATTLEFORD  CLOUDY    64  45  48 N6        29.99S
LA RONGE       PTSUNNY   57  48  72 NE14      30.05S
SASKATOON      PTSUNNY   64  45  48 E12G22    29.96R
SWIFT CURRENT  CLOUDY    59  46  63 W20G26    29.89F
$$
NOTE: THESE ARE AUTOMATED STATIONS WITH LIMITED QUALITY CONTROL
      "FAIR" INDICATES FEW OR NO CLOUDS BELOW 12,000 FEET WITH NO
      SIGNIFICANT WEATHER AND/OR OBSTRUCTIONS TO VISIBILITY.
      SKY/WX - SKY CONDITION AND SIGNIFICANT WEATHER.
      TMP - AIR TEMPERATURE.    DP   - DEWPOINT TEMPERATURE.
      RH  - RELATIVE HUMIDITY.  PRES - PRESSURE.
      HX  - HEAT INDEX.         WCI  - WIND CHILL INDEX.
$



USA.gov is the U.S. government's official web portal to all federal, state and local government web resources and services.